Weather History for 78762 - September, 2012

Change the Weather History Date:

Sunday, September 2, 2012

  Actual Average Record
Temperature  
Mean Temperature 74 °F -  
Max Temperature 83 °F 79 °F - ()
Min Temperature 64 °F 63 °F - ()
Cooling Degree Days 8    
Growing Degree Days 24 (Base 50)    
Moisture  
Dew Point 63 °F    
Average Humidity 73    
Maximum Humidity 88    
Minimum Humidity 45    
Precipitation  
Precipitation 0.12 in 0.46 in - ()
Sea Level Pressure  
Sea Level Pressure 29.98 in    
Wind  
Wind Speed 6 mph ()    
Max Wind Speed 12 mph    
Max Gust Speed -    
Visibility 7.6 miles    
Events Rain    
T = Trace of Precipitation, MM = Missing Value Source: Averaged Metar Reports

Daily Weather History Graph

Daily Weather History Graph

Search for Another Location

Airport or City:

Trip Planner

Search our weather history database for the weather conditions in past years. The results will help you decide how hot, cold, wet, or windy it might be!

Date:

Astronomy

Sep. 02, 2012 Rise Set
Actual Time 5:27 AM CST 5:44 PM CST
Civil Twilight 5:06 AM CST 6:06 PM CST
Nautical Twilight 4:41 AM CST 6:30 PM CST
Astronomical Twilight 4:16 AM CST 6:55 PM CST
Moon 7:13 PM CST (9/2) 6:59 AM CST (9/2)
Length of Visible Light 12h 59m
Length of Day
12h 17m
Waning Gibbous, 95% of the Moon is Illuminated
Sep 2
Waning Gibbous
Sep 8
Last Quarter
Sep 15
New
Sep 22
First Quarter
Sep 29
Full

Hourly Weather History & Observations

Time (CST) Temp. Heat Index Dew Point Humidity Pressure Visibility Wind Dir Wind Speed Gust Speed Precip Events Conditions
12:00 AM 66 °F - 62 °F 83% 29.83 in 12 mi ENE 4.6 mph - -   Clear
12:00 AM 66.2 °F - 62.6 °F 88% 30.04 in - ENE 4.6 mph - N/A   Clear
1:00 AM 66.2 °F - 62.6 °F 88% 30.01 in - ENE 4.6 mph - N/A   Clear
2:00 AM 68.0 °F - 60.8 °F 78% 29.98 in - NE 8.1 mph - N/A   Clear
3:00 AM 68 °F - 61 °F 73% 29.84 in 12 mi NE 4.6 mph - -   Clear
3:00 AM 68.0 °F - 60.8 °F 78% 29.98 in - ENE 5.8 mph - N/A   Clear
4:00 AM 68.0 °F - 60.8 °F 78% 30.00 in - NE 4.6 mph - N/A   Clear
5:00 AM 68.0 °F - 60.8 °F 78% 30.00 in - ENE 4.6 mph - N/A   Clear
6:00 AM 70 °F - 62 °F 69% 29.87 in 12 mi ESE 8.1 mph - -   Partly Cloudy
6:00 AM 69.8 °F - 62.6 °F 78% 30.00 in - ESE 8.1 mph - N/A   Clear
7:00 AM 71.6 °F - 62.6 °F 73% 30.02 in - NE 3.5 mph - N/A   Clear
8:00 AM 77.0 °F - 64.4 °F 65% 30.03 in 6.2 mi ESE 11.5 mph - N/A   Scattered Clouds
9:00 AM 78 °F - 63 °F 51% 29.86 in 12 mi ESE 11.5 mph - -   Partly Cloudy
9:00 AM 78.8 °F - 62.6 °F 57% 30.05 in 6.2 mi ESE 11.5 mph - N/A   Scattered Clouds
10:00 AM 80.6 °F 81.8 °F 62.6 °F 54% 30.06 in 6.2 mi East 8.1 mph - N/A   Scattered Clouds
11:00 AM 78.8 °F - 62.6 °F 57% 30.06 in 6.2 mi East 8.1 mph - N/A   Scattered Clouds
12:00 PM 80.6 °F 81.1 °F 59.0 °F 48% 30.03 in 6.2 mi South 3.5 mph - N/A   Scattered Clouds
1:00 PM 82.4 °F 82.5 °F 59.0 °F 45% 29.99 in 6.2 mi East 10.4 mph - N/A   Scattered Clouds
1:39 PM 73.4 °F - 64.4 °F 73% 29.98 in 6.2 mi SE 11.5 mph - N/A Rain Rain Showers
2:00 PM 69.8 °F - 66.2 °F 88% 29.99 in 6.2 mi SSE 8.1 mph - N/A Rain Light Rain
2:22 PM 71.6 °F - 66.2 °F 83% 30.00 in 6.2 mi WSW 8.1 mph - N/A Rain Light Rain
3:00 PM 71 °F - 65 °F 76% 29.86 in 2 mi South 2.3 mph - - Rain Light Rain
3:00 PM 71.6 °F - 64.4 °F 78% 30.00 in 6.2 mi South 2.3 mph - N/A Rain Light Rain
4:00 PM 71.6 °F - 68.0 °F 88% 29.98 in 6.2 mi NNE 4.6 mph - N/A Rain Light Rain
5:00 PM 71.6 °F - 64.4 °F 78% 30.00 in 6.2 mi SSW 1.2 mph - N/A   Mostly Cloudy
6:00 PM 71 °F - 64 °F 71% 29.87 in 12 mi East 2.3 mph - -   Scattered Clouds
6:00 PM 71.6 °F - 64.4 °F 78% 30.01 in 6.2 mi East 2.3 mph - N/A   Mostly Cloudy
7:00 PM 71.6 °F - 64.4 °F 78% 30.04 in 6.2 mi NE 2.3 mph - N/A   Mostly Cloudy
8:00 PM 71.6 °F - 62.6 °F 73% 30.05 in 6.2 mi ENE 4.6 mph - N/A   Mostly Cloudy
9:00 PM 71 °F - 64 °F 71% 29.88 in 12 mi East 9.2 mph - -   Scattered Clouds
9:00 PM 71.6 °F - 64.4 °F 78% 30.06 in - East 9.2 mph - N/A   Clear
10:00 PM 69.8 °F - 62.6 °F 78% 30.06 in - ENE 4.6 mph - N/A   Clear
11:00 PM 69.8 °F - 62.6 °F 78% 30.03 in - NE 9.2 mph - N/A   Clear